Baker, MT

8:12 AM MDT on July 28, 2017 (GMT -0600)
Baker Municipal

Weather History for KBHK - October, 2013

Change the Weather History Date:

Sunday, October 27, 2013

  Actual Average Record
Temperature  
Mean Temperature 40 °F -  
Max Temperature 55 °F 80 °F 73 °F (2001)
Min Temperature 26 °F 32 °F 14 °F (2008)
Degree Days  
Heating Degree Days 25    
Moisture  
Dew Point 29 °F    
Average Humidity 71    
Maximum Humidity 89    
Minimum Humidity 43    
Precipitation  
Precipitation 0.00 in - - ()
Sea Level Pressure  
Sea Level Pressure 30.01 in    
Wind  
Wind Speed 8 mph (East)    
Max Wind Speed 24 mph    
Max Gust Speed 33 mph    
Visibility 10 miles    
Events      
Averages and records for this station are not official NWS values.
T = Trace of Precipitation, MM = Missing Value Source: NWS Daily Summary

Daily Weather History Graph

Daily Weather History Graph

Search for Another Location

Airport or City:

Trip Planner

Search our weather history database for the weather conditions in past years. The results will help you decide how hot, cold, wet, or windy it might be!

Date:

Astronomy

Oct. 27, 2013 Rise Set
Actual Time 7:31 AM MDT 5:49 PM MDT
Civil Twilight 7:00 AM MDT 6:20 PM MDT
Nautical Twilight 6:25 AM MDT 6:55 PM MDT
Astronomical Twilight 5:50 AM MDT 7:30 PM MDT
Moon 12:08 AM MDT (10/27) 2:20 PM MDT (10/27)
Length of Visible Light 11h 20m
Length of Day
10h 17m
Last Quarter, 43% of the Moon is Illuminated
Oct 27
Last Quarter
Nov 3
New
Nov 9
First Quarter
Nov 17
Full
Nov 25
Last Quarter

Hourly Weather History & Observations

Time (MDT) Temp. Windchill Dew Point Humidity Pressure Visibility Wind Dir Wind Speed Gust Speed Precip Events Conditions
12:51 AM 35.1 °F - 30.0 °F 82% 29.91 in 10.0 mi Calm Calm - N/A   Clear
1:51 AM 34.0 °F - 28.9 °F 82% 29.89 in 10.0 mi Calm Calm - N/A   Clear
2:51 AM 30.0 °F - 27.0 °F 88% 29.89 in 10.0 mi Calm Calm - N/A   Clear
3:51 AM 35.1 °F - 30.0 °F 82% 29.87 in 10.0 mi Calm Calm - N/A   Clear
4:51 AM 30.0 °F - 27.0 °F 88% 29.88 in 10.0 mi Calm Calm - N/A   Clear
5:51 AM 28.9 °F 25.2 °F 25.0 °F 85% 29.88 in 10.0 mi ENE 3.5 mph - N/A   Clear
6:51 AM 27.0 °F - 24.1 °F 89% 29.91 in 10.0 mi Calm Calm - N/A   Clear
7:51 AM 26.1 °F 21.9 °F 23.0 °F 88% 29.92 in 10.0 mi East 3.5 mph - N/A   Clear
8:51 AM 34.0 °F - 30.0 °F 85% 29.94 in 10.0 mi Calm Calm - N/A   Clear
9:51 AM 45.0 °F - 37.0 °F 74% 29.92 in 10.0 mi Calm Calm - N/A   Clear
10:51 AM 51.1 °F - 33.1 °F 50% 29.92 in 10.0 mi ENE 10.4 mph - N/A   Clear
11:51 AM 53.1 °F - 30.9 °F 43% 29.93 in 10.0 mi East 11.5 mph - N/A   Clear
12:51 PM 54.0 °F - 33.1 °F 45% 29.92 in 10.0 mi East 16.1 mph - N/A   Clear
1:51 PM 53.1 °F - 33.1 °F 47% 29.93 in 10.0 mi East 20.7 mph - N/A   Clear
2:51 PM 51.1 °F - 33.1 °F 50% 29.96 in 10.0 mi ENE 24.2 mph 29.9 mph N/A   Clear
3:51 PM 48.9 °F - 33.1 °F 54% 30.00 in 10.0 mi East 23.0 mph - N/A   Clear
4:51 PM 45.0 °F 36.4 °F 32.0 °F 60% 30.05 in 10.0 mi ENE 23.0 mph 29.9 mph N/A   Clear
5:51 PM 39.0 °F 29.0 °F 30.0 °F 70% 30.11 in 10.0 mi East 20.7 mph - N/A   Partly Cloudy
6:27 PM 37.9 °F 27.3 °F 28.9 °F 70% 30.06 in 10.0 mi East 21.9 mph 32.2 mph N/A   Mostly Cloudy
6:51 PM 37.0 °F 26.2 °F 28.0 °F 70% 30.16 in 10.0 mi East 21.9 mph 33.4 mph N/A   Overcast
7:51 PM 35.1 °F 23.5 °F 27.0 °F 72% 30.19 in 10.0 mi East 21.9 mph 28.8 mph N/A   Overcast
8:51 PM 34.0 °F 21.8 °F 27.0 °F 75% 30.21 in 10.0 mi East 23.0 mph 28.8 mph N/A   Overcast
9:13 PM 33.1 °F 20.6 °F 27.0 °F 78% 30.16 in 10.0 mi East 23.0 mph 29.9 mph N/A   Overcast
9:51 PM 33.1 °F 20.9 °F 26.1 °F 75% 30.23 in 10.0 mi ESE 21.9 mph 29.9 mph N/A   Overcast
10:51 PM 33.1 °F 20.9 °F 26.1 °F 75% 30.24 in 10.0 mi East 21.9 mph 31.1 mph N/A   Overcast
11:51 PM 32.0 °F 19.8 °F 25.0 °F 75% 30.27 in 10.0 mi East 20.7 mph 26.5 mph N/A   Overcast